Time,TemperatureF,DewpointF,PressureIn,WindDirection,WindDirectionDegrees,WindSpeedMPH,WindSpeedGustMPH,Humidity,HourlyPrecipIn,Conditions,Clouds,dailyrainin,SoftwareType,DateUTC
2013-12-01 00:01:00,27.9,8.3,0.00,NNW,332,0.0,0.0,43,0.00,,,0.00,VWS V13.01,2013-12-01 06:01:00,
2013-12-01 00:06:00,27.9,8.3,0.00,NNW,332,0.0,0.0,43,0.00,,,0.00,VWS V13.01,2013-12-01 06:06:00,
2013-12-01 00:11:00,27.7,8.1,0.00,NNW,332,0.0,0.0,43,0.00,,,0.00,VWS V13.01,2013-12-01 06:11:00,
2013-12-01 00:16:00,27.5,7.9,0.00,NNW,332,0.0,0.0,43,0.00,,,0.00,VWS V13.01,2013-12-01 06:16:00,
2013-12-01 00:21:00,27.3,7.8,0.00,NNW,332,0.0,0.0,43,0.00,,,0.00,VWS V13.01,2013-12-01 06:21:00,
2013-12-01 00:26:00,27.1,7.6,0.00,NNW,332,0.0,0.0,43,0.00,,,0.00,VWS V13.01,2013-12-01 06:26:00,
2013-12-01 00:31:00,27.0,8.0,0.00,NNW,332,0.0,0.0,44,0.00,,,0.00,VWS V13.01,2013-12-01 06:31:00,
2013-12-01 00:36:00,27.0,8.0,0.00,NNW,332,0.0,0.0,44,0.00,,,0.00,VWS V13.01,2013-12-01 06:36:00,
2013-12-01 00:41:00,27.1,8.1,0.00,NNW,332,0.0,0.0,44,0.00,,,0.00,VWS V13.01,2013-12-01 06:41:00,
2013-12-01 00:46:00,27.5,8.5,0.00,NNW,332,0.0,0.0,44,0.00,,,0.00,VWS V13.01,2013-12-01 06:46:00,
2013-12-01 00:51:00,27.9,9.3,0.00,NNW,332,0.0,0.0,45,0.00,,,0.00,VWS V13.01,2013-12-01 06:51:00,
2013-12-01 00:56:00,28.0,9.4,0.00,NNW,332,0.0,0.0,45,0.00,,,0.00,VWS V13.01,2013-12-01 06:56:00,
2013-12-01 01:01:00,27.9,9.3,0.00,NNW,332,0.0,0.0,45,0.00,,,0.00,VWS V13.01,2013-12-01 07:01:00,
2013-12-01 01:06:00,27.9,9.3,0.00,SW,215,2.2,2.2,45,0.00,,,0.00,VWS V13.01,2013-12-01 07:06:00,
2013-12-01 01:11:00,27.3,8.8,0.00,SW,215,0.0,0.0,45,0.00,,,0.00,VWS V13.01,2013-12-01 07:11:00,
2013-12-01 01:16:00,27.3,8.8,0.00,SW,215,0.0,0.0,45,0.00,,,0.00,VWS V13.01,2013-12-01 07:16:00,
2013-12-01 01:21:00,27.3,8.8,0.00,SW,215,0.0,0.0,45,0.00,,,0.00,VWS V13.01,2013-12-01 07:21:00,
2013-12-01 01:26:00,27.3,9.3,0.00,SW,215,0.0,0.0,46,0.00,,,0.00,VWS V13.01,2013-12-01 07:26:00,
2013-12-01 01:31:00,27.5,9.4,0.00,SW,215,0.0,0.0,46,0.00,,,0.00,VWS V13.01,2013-12-01 07:31:00,
2013-12-01 01:36:00,27.5,9.4,0.00,SW,215,0.0,0.0,46,0.00,,,0.00,VWS V13.01,2013-12-01 07:36:00,
2013-12-01 01:41:00,27.3,9.3,0.00,SW,215,0.0,0.0,46,0.00,,,0.00,VWS V13.01,2013-12-01 07:41:00,
2013-12-01 01:46:00,27.3,9.3,0.00,SW,215,0.0,0.0,46,0.00,,,0.00,VWS V13.01,2013-12-01 07:46:00,
2013-12-01 01:51:00,27.5,9.4,0.00,SW,215,0.0,0.0,46,0.00,,,0.00,VWS V13.01,2013-12-01 07:51:00,
2013-12-01 01:56:00,27.7,10.1,0.00,SW,215,0.0,0.0,47,0.00,,,0.00,VWS V13.01,2013-12-01 07:56:00,
2013-12-01 02:01:00,27.7,10.1,0.00,SW,215,0.0,0.0,47,0.00,,,0.00,VWS V13.01,2013-12-01 08:01:00,
2013-12-01 02:06:00,27.7,10.1,0.00,SW,215,0.0,0.0,47,0.00,,,0.00,VWS V13.01,2013-12-01 08:06:00,
2013-12-01 02:11:00,27.5,9.9,0.00,SW,215,0.0,0.0,47,0.00,,,0.00,VWS V13.01,2013-12-01 08:11:00,
2013-12-01 02:16:00,27.3,9.8,0.00,SW,215,0.0,0.0,47,0.00,,,0.00,VWS V13.01,2013-12-01 08:16:00,
2013-12-01 02:21:00,27.3,9.8,0.00,SW,215,0.0,0.0,47,0.00,,,0.00,VWS V13.01,2013-12-01 08:21:00,
2013-12-01 02:26:00,27.1,9.6,0.00,SW,215,0.0,0.0,47,0.00,,,0.00,VWS V13.01,2013-12-01 08:26:00,
2013-12-01 02:31:00,27.0,8.9,0.00,SW,215,0.0,0.0,46,0.00,,,0.00,VWS V13.01,2013-12-01 08:31:00,
2013-12-01 02:36:00,26.8,8.8,0.00,SW,215,0.0,0.0,46,0.00,,,0.00,VWS V13.01,2013-12-01 08:36:00,
2013-12-01 02:41:00,26.4,8.9,0.00,SW,215,0.0,0.0,47,0.00,,,0.00,VWS V13.01,2013-12-01 08:41:00,
2013-12-01 02:46:00,26.2,8.8,0.00,SW,215,0.0,0.0,47,0.00,,,0.00,VWS V13.01,2013-12-01 08:46:00,
2013-12-01 02:51:00,26.1,8.6,0.00,SW,215,0.0,0.0,47,0.00,,,0.00,VWS V13.01,2013-12-01 08:51:00,
2013-12-01 02:56:00,25.9,8.4,0.00,SW,215,0.0,0.0,47,0.00,,,0.00,VWS V13.01,2013-12-01 08:56:00,
2013-12-01 03:01:00,25.3,7.9,0.00,SW,215,0.0,0.0,47,0.00,,,0.00,VWS V13.01,2013-12-01 09:01:00,
2013-12-01 03:06:00,25.0,7.6,0.00,SW,215,0.0,0.0,47,0.00,,,0.00,VWS V13.01,2013-12-01 09:06:00,
2013-12-01 03:11:00,24.6,7.3,0.00,SW,215,0.0,0.0,47,0.00,,,0.00,VWS V13.01,2013-12-01 09:11:00,
2013-12-01 03:16:00,24.3,6.9,0.00,SW,215,0.0,0.0,47,0.00,,,0.00,VWS V13.01,2013-12-01 09:16:00,
2013-12-01 03:21:00,23.9,6.6,0.00,SW,215,0.0,0.0,47,0.00,,,0.00,VWS V13.01,2013-12-01 09:21:00,
2013-12-01 03:26:00,23.7,6.4,0.00,SW,215,0.0,0.0,47,0.00,,,0.00,VWS V13.01,2013-12-01 09:26:00,
2013-12-01 03:31:00,23.5,6.3,0.00,SW,215,0.0,0.0,47,0.00,,,0.00,VWS V13.01,2013-12-01 09:31:00,
2013-12-01 03:36:00,23.4,6.1,0.00,SW,215,0.0,0.0,47,0.00,,,0.00,VWS V13.01,2013-12-01 09:36:00,
2013-12-01 03:41:00,23.0,6.2,0.00,SW,215,0.0,0.0,48,0.00,,,0.00,VWS V13.01,2013-12-01 09:41:00,
2013-12-01 03:46:00,22.8,6.1,0.00,SW,215,0.0,0.0,48,0.00,,,0.00,VWS V13.01,2013-12-01 09:46:00,
2013-12-01 03:51:00,22.8,6.1,0.00,SW,215,0.0,0.0,48,0.00,,,0.00,VWS V13.01,2013-12-01 09:51:00,
2013-12-01 03:56:00,22.6,5.9,0.00,SW,215,0.0,0.0,48,0.00,,,0.00,VWS V13.01,2013-12-01 09:56:00,
2013-12-01 04:01:00,22.3,5.6,0.00,SW,215,0.0,0.0,48,0.00,,,0.00,VWS V13.01,2013-12-01 10:01:00,
2013-12-01 04:06:00,22.1,5.9,0.00,SW,215,0.0,0.0,49,0.00,,,0.00,VWS V13.01,2013-12-01 10:06:00,
2013-12-01 04:11:00,22.3,6.0,0.00,SW,215,0.0,0.0,49,0.00,,,0.00,VWS V13.01,2013-12-01 10:11:00,
2013-12-01 04:16:00,22.8,7.0,0.00,SSW,213,0.0,0.0,50,0.00,,,0.00,VWS V13.01,2013-12-01 10:16:00,
2013-12-01 04:21:00,23.0,7.1,0.00,SSW,213,0.0,0.0,50,0.00,,,0.00,VWS V13.01,2013-12-01 10:21:00,
2013-12-01 04:26:00,23.2,7.3,0.00,SSW,213,0.0,0.0,50,0.00,,,0.00,VWS V13.01,2013-12-01 10:26:00,
2013-12-01 04:31:00,23.4,7.5,0.00,SSW,213,0.0,0.0,50,0.00,,,0.00,VWS V13.01,2013-12-01 10:31:00,
2013-12-01 04:36:00,23.4,7.5,0.00,SSW,213,0.0,0.0,50,0.00,,,0.00,VWS V13.01,2013-12-01 10:36:00,
2013-12-01 04:41:00,23.4,7.5,0.00,SSW,213,0.0,0.0,50,0.00,,,0.00,VWS V13.01,2013-12-01 10:41:00,
2013-12-01 04:46:00,23.5,8.1,0.00,SSW,213,0.0,0.0,51,0.00,,,0.00,VWS V13.01,2013-12-01 10:46:00,
2013-12-01 04:51:00,23.5,8.1,0.00,SSW,213,0.0,0.0,51,0.00,,,0.00,VWS V13.01,2013-12-01 10:51:00,
2013-12-01 04:56:00,23.5,8.1,0.00,SSW,213,0.0,0.0,51,0.00,,,0.00,VWS V13.01,2013-12-01 10:56:00,
2013-12-01 05:01:00,23.7,8.7,0.00,SSW,213,0.0,0.0,52,0.00,,,0.00,VWS V13.01,2013-12-01 11:01:00,
2013-12-01 05:06:00,23.7,8.7,0.00,SSW,213,0.0,0.0,52,0.00,,,0.00,VWS V13.01,2013-12-01 11:06:00,
2013-12-01 05:11:00,23.9,8.9,0.00,SSW,213,0.0,0.0,52,0.00,,,0.00,VWS V13.01,2013-12-01 11:11:00,
2013-12-01 05:16:00,24.1,9.0,0.00,SSW,213,0.0,0.0,52,0.00,,,0.00,VWS V13.01,2013-12-01 11:16:00,
2013-12-01 05:21:00,24.3,9.2,0.00,SSW,213,0.0,0.0,52,0.00,,,0.00,VWS V13.01,2013-12-01 11:21:00,
2013-12-01 05:26:00,24.4,9.4,0.00,SSW,213,0.0,0.0,52,0.00,,,0.00,VWS V13.01,2013-12-01 11:26:00,
2013-12-01 05:31:00,24.4,9.4,0.00,SSW,213,0.0,0.0,52,0.00,,,0.00,VWS V13.01,2013-12-01 11:31:00,
2013-12-01 05:36:00,24.4,9.4,0.00,SSW,213,0.0,0.0,52,0.00,,,0.00,VWS V13.01,2013-12-01 11:36:00,
2013-12-01 05:41:00,24.4,9.4,0.00,SSW,213,0.0,0.0,52,0.00,,,0.00,VWS V13.01,2013-12-01 11:41:00,
2013-12-01 05:46:00,24.6,9.5,0.00,SSW,213,0.0,0.0,52,0.00,,,0.00,VWS V13.01,2013-12-01 11:46:00,
2013-12-01 05:51:00,24.6,9.5,0.00,SSW,213,0.0,0.0,52,0.00,,,0.00,VWS V13.01,2013-12-01 11:51:00,
2013-12-01 05:56:00,24.6,9.5,0.00,SSW,213,0.0,0.0,52,0.00,,,0.00,VWS V13.01,2013-12-01 11:56:00,
2013-12-01 06:01:00,24.6,9.5,0.00,SSW,213,0.0,0.0,52,0.00,,,0.00,VWS V13.01,2013-12-01 12:01:00,
2013-12-01 06:06:00,24.8,10.1,0.00,SSW,213,0.0,0.0,53,0.00,,,0.00,VWS V13.01,2013-12-01 12:06:00,
2013-12-01 06:11:00,24.8,10.1,0.00,SSW,213,0.0,0.0,53,0.00,,,0.00,VWS V13.01,2013-12-01 12:11:00,
2013-12-01 06:16:00,24.8,10.1,0.00,SSW,213,0.0,0.0,53,0.00,,,0.00,VWS V13.01,2013-12-01 12:16:00,
2013-12-01 06:21:00,25.0,9.9,0.00,SSW,213,0.0,0.0,52,0.00,,,0.00,VWS V13.01,2013-12-01 12:21:00,
2013-12-01 06:26:00,25.0,9.9,0.00,SSW,213,0.0,0.0,52,0.00,,,0.00,VWS V13.01,2013-12-01 12:26:00,
2013-12-01 06:31:00,25.2,10.0,0.00,SSW,213,0.0,0.0,52,0.00,,,0.00,VWS V13.01,2013-12-01 12:31:00,
2013-12-01 06:36:00,25.2,10.0,0.00,SSW,213,0.0,0.0,52,0.00,,,0.00,VWS V13.01,2013-12-01 12:36:00,
2013-12-01 06:41:00,25.2,10.4,0.00,SSW,213,0.0,0.0,53,0.00,,,0.00,VWS V13.01,2013-12-01 12:41:00,
2013-12-01 06:46:00,25.3,10.6,0.00,SSW,213,0.0,0.0,53,0.00,,,0.00,VWS V13.01,2013-12-01 12:46:00,
2013-12-01 06:51:00,25.5,10.8,0.00,SSW,213,0.0,0.0,53,0.00,,,0.00,VWS V13.01,2013-12-01 12:51:00,
2013-12-01 06:56:00,25.3,10.6,0.00,SSW,213,0.0,0.0,53,0.00,,,0.00,VWS V13.01,2013-12-01 12:56:00,
2013-12-01 07:01:00,25.3,10.6,0.00,SSW,213,0.0,0.0,53,0.00,,,0.00,VWS V13.01,2013-12-01 13:01:00,
2013-12-01 07:06:00,25.5,10.8,0.00,SSW,213,0.0,0.0,53,0.00,,,0.00,VWS V13.01,2013-12-01 13:06:00,
2013-12-01 07:11:00,25.7,10.9,0.00,SSW,213,0.0,0.0,53,0.00,,,0.00,VWS V13.01,2013-12-01 13:11:00,
2013-12-01 07:16:00,25.7,10.9,0.00,SSW,213,0.0,0.0,53,0.00,,,0.00,VWS V13.01,2013-12-01 13:16:00,
2013-12-01 07:21:00,25.9,11.1,0.00,SSW,213,0.0,0.0,53,0.00,,,0.00,VWS V13.01,2013-12-01 13:21:00,
2013-12-01 07:26:00,25.9,11.1,0.00,SSW,213,0.0,0.0,53,0.00,,,0.00,VWS V13.01,2013-12-01 13:26:00,
2013-12-01 07:31:00,25.7,10.9,0.00,SSW,213,0.0,0.0,53,0.00,,,0.00,VWS V13.01,2013-12-01 13:31:00,
2013-12-01 07:36:00,25.5,10.8,0.00,SSW,213,0.0,0.0,53,0.00,,,0.00,VWS V13.01,2013-12-01 13:36:00,
2013-12-01 07:41:00,25.5,10.8,0.00,SSW,213,0.0,0.0,53,0.00,,,0.00,VWS V13.01,2013-12-01 13:41:00,
2013-12-01 07:46:00,25.3,10.6,0.00,SSW,213,0.0,0.0,53,0.00,,,0.00,VWS V13.01,2013-12-01 13:46:00,
2013-12-01 07:51:00,25.3,10.6,0.00,SSW,213,0.0,0.0,53,0.00,,,0.00,VWS V13.01,2013-12-01 13:51:00,
2013-12-01 07:56:00,25.3,10.6,0.00,SSW,213,0.0,0.0,53,0.00,,,0.00,VWS V13.01,2013-12-01 13:56:00,
2013-12-01 08:01:00,25.3,10.6,0.00,SSW,213,0.0,0.0,53,0.00,,,0.00,VWS V13.01,2013-12-01 14:01:00,
2013-12-01 08:06:00,25.5,11.2,0.00,SSW,213,0.0,0.0,54,0.00,,,0.00,VWS V13.01,2013-12-01 14:06:00,
2013-12-01 08:11:00,25.7,11.4,0.00,SSW,213,0.0,0.0,54,0.00,,,0.00,VWS V13.01,2013-12-01 14:11:00,
2013-12-01 08:16:00,25.9,11.5,0.00,SSW,213,0.0,0.0,54,0.00,,,0.00,VWS V13.01,2013-12-01 14:16:00,
2013-12-01 08:21:00,26.1,11.7,0.00,SSW,213,0.0,0.0,54,0.00,,,0.00,VWS V13.01,2013-12-01 14:21:00,
2013-12-01 08:26:00,26.2,11.9,0.00,SSW,213,0.0,0.0,54,0.00,,,0.00,VWS V13.01,2013-12-01 14:26:00,
2013-12-01 08:31:00,26.4,12.0,0.00,SSW,213,0.0,0.0,54,0.00,,,0.00,VWS V13.01,2013-12-01 14:31:00,
2013-12-01 08:36:00,26.6,12.2,0.00,SSW,213,0.0,0.0,54,0.00,,,0.00,VWS V13.01,2013-12-01 14:36:00,
2013-12-01 08:41:00,26.8,12.4,0.00,SSW,213,0.0,0.0,54,0.00,,,0.00,VWS V13.01,2013-12-01 14:41:00,
2013-12-01 08:46:00,27.0,12.6,0.00,SSW,213,0.0,0.0,54,0.00,,,0.00,VWS V13.01,2013-12-01 14:46:00,
2013-12-01 08:51:00,27.1,12.7,0.00,SSW,213,0.0,0.0,54,0.00,,,0.00,VWS V13.01,2013-12-01 14:51:00,
2013-12-01 08:56:00,27.1,12.7,0.00,SSW,213,0.0,0.0,54,0.00,,,0.00,VWS V13.01,2013-12-01 14:56:00,
2013-12-01 09:01:00,27.3,12.9,0.00,SSW,213,0.0,0.0,54,0.00,,,0.00,VWS V13.01,2013-12-01 15:01:00,
2013-12-01 09:06:00,27.5,13.1,0.00,SSW,213,0.0,0.0,54,0.00,,,0.00,VWS V13.01,2013-12-01 15:06:00,
2013-12-01 09:11:00,27.9,13.4,0.00,SSW,213,0.0,0.0,54,0.00,,,0.00,VWS V13.01,2013-12-01 15:11:00,
2013-12-01 09:16:00,28.0,13.6,0.00,SSW,213,0.0,0.0,54,0.00,,,0.00,VWS V13.01,2013-12-01 15:16:00,
2013-12-01 09:21:00,28.4,13.9,0.00,SSW,213,0.0,0.0,54,0.00,,,0.00,VWS V13.01,2013-12-01 15:21:00,
2013-12-01 09:26:00,28.6,14.1,0.00,SSW,213,0.0,0.0,54,0.00,,,0.00,VWS V13.01,2013-12-01 15:26:00,
2013-12-01 09:31:00,28.6,14.1,0.00,SSW,213,0.0,0.0,54,0.00,,,0.00,VWS V13.01,2013-12-01 15:31:00,
2013-12-01 09:36:00,28.8,14.2,0.00,SSW,213,0.0,0.0,54,0.00,,,0.00,VWS V13.01,2013-12-01 15:36:00,
2013-12-01 09:41:00,28.9,14.4,0.00,SSW,213,0.0,0.0,54,0.00,,,0.00,VWS V13.01,2013-12-01 15:41:00,
2013-12-01 09:46:00,28.9,14.0,0.00,SSW,213,0.0,0.0,53,0.00,,,0.00,VWS V13.01,2013-12-01 15:46:00,
2013-12-01 09:51:00,29.1,14.1,0.00,SSW,213,0.0,0.0,53,0.00,,,0.00,VWS V13.01,2013-12-01 15:51:00,
2013-12-01 09:56:00,29.3,14.3,0.00,SSW,213,0.0,0.0,53,0.00,,,0.00,VWS V13.01,2013-12-01 15:56:00,
2013-12-01 10:01:00,30.2,15.1,0.00,SSW,213,0.0,0.0,53,0.00,,,0.00,VWS V13.01,2013-12-01 16:01:00,
2013-12-01 10:06:00,31.1,16.0,0.00,SSW,213,0.0,0.0,53,0.00,,,0.00,VWS V13.01,2013-12-01 16:06:00,
2013-12-01 10:11:00,31.6,16.5,0.00,SSW,213,0.0,0.0,53,0.00,,,0.00,VWS V13.01,2013-12-01 16:11:00,
2013-12-01 10:16:00,32.0,16.4,0.00,NW,318,0.0,2.7,52,0.00,,,0.00,VWS V13.01,2013-12-01 16:16:00,
2013-12-01 10:21:00,32.2,16.5,0.00,NNW,327,2.7,3.6,52,0.00,,,0.00,VWS V13.01,2013-12-01 16:21:00,
2013-12-01 10:26:00,32.5,16.4,0.00,North,350,3.1,3.1,51,0.00,,,0.00,VWS V13.01,2013-12-01 16:26:00,
2013-12-01 10:31:00,32.5,15.5,0.00,NNE,12,2.7,2.7,49,0.00,,,0.00,VWS V13.01,2013-12-01 16:31:00,
2013-12-01 10:36:00,33.1,15.1,0.00,North,353,2.7,3.1,47,0.00,,,0.00,VWS V13.01,2013-12-01 16:36:00,
2013-12-01 10:41:00,33.1,15.1,0.00,NNW,346,0.0,0.0,47,0.00,,,0.00,VWS V13.01,2013-12-01 16:41:00,
2013-12-01 10:46:00,33.3,14.2,0.00,North,357,2.7,2.7,45,0.00,,,0.00,VWS V13.01,2013-12-01 16:46:00,
2013-12-01 10:51:00,33.8,14.2,0.00,NNW,340,0.0,0.0,44,0.00,,,0.00,VWS V13.01,2013-12-01 16:51:00,
2013-12-01 10:56:00,34.0,14.4,0.00,NW,325,0.0,0.0,44,0.00,,,0.00,VWS V13.01,2013-12-01 16:56:00,
2013-12-01 11:01:00,33.8,13.1,0.00,SSE,158,4.0,4.0,42,0.00,,,0.00,VWS V13.01,2013-12-01 17:01:00,
2013-12-01 11:06:00,33.8,12.1,0.00,SSE,150,4.0,4.0,40,0.00,,,0.00,VWS V13.01,2013-12-01 17:06:00,
2013-12-01 11:11:00,33.3,12.7,0.00,SSE,167,4.5,4.9,42,0.00,,,0.00,VWS V13.01,2013-12-01 17:11:00,
2013-12-01 11:16:00,32.9,12.3,0.00,SSE,167,3.6,4.0,42,0.00,,,0.00,VWS V13.01,2013-12-01 17:16:00,
2013-12-01 11:21:00,32.9,12.3,0.00,SSE,167,3.6,3.6,42,0.00,,,0.00,VWS V13.01,2013-12-01 17:21:00,
2013-12-01 11:26:00,33.1,12.5,0.00,SSE,167,3.1,4.0,42,0.00,,,0.00,VWS V13.01,2013-12-01 17:26:00,
2013-12-01 11:31:00,33.3,12.1,0.00,SSE,167,3.6,3.6,41,0.00,,,0.00,VWS V13.01,2013-12-01 17:31:00,
2013-12-01 11:36:00,33.3,12.1,0.00,SSE,167,3.6,4.0,41,0.00,,,0.00,VWS V13.01,2013-12-01 17:36:00,
2013-12-01 11:41:00,33.4,12.3,0.00,SSE,167,2.7,3.1,41,0.00,,,0.00,VWS V13.01,2013-12-01 17:41:00,
2013-12-01 11:46:00,33.6,12.4,0.00,SSE,167,2.7,2.7,41,0.00,,,0.00,VWS V13.01,2013-12-01 17:46:00,
2013-12-01 11:51:00,33.8,12.1,0.00,SSE,167,2.7,2.7,40,0.00,,,0.00,VWS V13.01,2013-12-01 17:51:00,
2013-12-01 11:56:00,34.0,12.2,0.00,SSE,167,0.0,2.2,40,0.00,,,0.00,VWS V13.01,2013-12-01 17:56:00,
2013-12-01 12:01:00,34.3,12.5,0.00,ESE,119,3.6,3.6,40,0.00,,,0.00,VWS V13.01,2013-12-01 18:01:00,
2013-12-01 12:06:00,34.7,12.9,0.00,ESE,122,2.7,3.1,40,0.00,,,0.00,VWS V13.01,2013-12-01 18:06:00,
2013-12-01 12:11:00,35.2,12.8,0.00,ESE,121,2.7,3.6,39,0.00,,,0.00,VWS V13.01,2013-12-01 18:11:00,
2013-12-01 12:16:00,35.1,12.0,0.00,SSE,151,3.1,3.1,38,0.00,,,0.00,VWS V13.01,2013-12-01 18:16:00,
2013-12-01 12:21:00,34.5,10.3,0.00,SSE,168,4.0,5.4,36,0.00,,,0.00,VWS V13.01,2013-12-01 18:21:00,
2013-12-01 12:27:00,34.0,10.5,0.00,SSE,162,4.9,4.9,37,0.00,,,0.00,VWS V13.01,2013-12-01 18:27:00,
2013-12-01 12:32:00,34.0,11.1,0.00,SSE,153,5.8,5.8,38,0.00,,,0.00,VWS V13.01,2013-12-01 18:32:00,
2013-12-01 12:37:00,34.0,11.6,0.00,SE,146,3.1,3.6,39,0.00,,,0.00,VWS V13.01,2013-12-01 18:37:00,
2013-12-01 12:42:00,34.0,10.5,0.00,SSE,168,4.9,4.9,37,0.00,,,0.00,VWS V13.01,2013-12-01 18:42:00,
2013-12-01 12:47:00,34.0,11.1,0.00,South,189,5.4,5.4,38,0.00,,,0.00,VWS V13.01,2013-12-01 18:47:00,
2013-12-01 12:52:00,34.0,10.5,0.00,South,189,3.1,5.4,37,0.00,,,0.00,VWS V13.01,2013-12-01 18:52:00,
2013-12-01 12:57:00,34.0,10.5,0.00,South,188,4.9,5.4,37,0.00,,,0.00,VWS V13.01,2013-12-01 18:57:00,
2013-12-01 13:02:00,34.0,11.1,0.00,SSW,202,0.0,0.0,38,0.00,,,0.00,VWS V13.01,2013-12-01 19:02:00,
2013-12-01 13:07:00,34.2,10.6,0.00,South,183,0.0,0.0,37,0.00,,,0.00,VWS V13.01,2013-12-01 19:07:00,
2013-12-01 13:12:00,34.3,11.4,0.00,South,188,0.0,0.0,38,0.00,,,0.00,VWS V13.01,2013-12-01 19:12:00,
2013-12-01 13:17:00,34.5,12.1,0.00,South,188,0.0,0.0,39,0.00,,,0.00,VWS V13.01,2013-12-01 19:17:00,
2013-12-01 13:22:00,34.7,12.3,0.00,SSW,208,0.0,2.7,39,0.00,,,0.00,VWS V13.01,2013-12-01 19:22:00,
2013-12-01 13:27:00,34.7,12.3,0.00,SSW,206,0.0,0.0,39,0.00,,,0.00,VWS V13.01,2013-12-01 19:27:00,
2013-12-01 13:32:00,34.7,12.3,0.00,SSW,206,0.0,0.0,39,0.00,,,0.00,VWS V13.01,2013-12-01 19:32:00,
2013-12-01 13:37:00,34.9,12.4,0.00,SSW,206,0.0,0.0,39,0.00,,,0.00,VWS V13.01,2013-12-01 19:37:00,
2013-12-01 13:38:00,34.9,12.4,0.00,SSW,206,0.0,0.0,39,0.00,,,0.00,VWS V13.01,2013-12-01 19:38:00,
2013-12-01 13:43:00,34.7,12.3,0.00,SSW,206,0.0,0.0,39,0.00,,,0.00,VWS V13.01,2013-12-01 19:43:00,
2013-12-01 13:48:00,34.7,12.3,0.00,SSW,206,0.0,0.0,39,0.00,,,0.00,VWS V13.01,2013-12-01 19:48:00,
2013-12-01 13:53:00,34.7,12.3,0.00,SSW,206,0.0,0.0,39,0.00,,,0.00,VWS V13.01,2013-12-01 19:53:00,
2013-12-01 13:58:00,34.7,11.7,0.00,SSW,206,0.0,0.0,38,0.00,,,0.00,VWS V13.01,2013-12-01 19:58:00,
2013-12-01 14:03:00,34.7,11.7,0.00,SSW,206,0.0,0.0,38,0.00,,,0.00,VWS V13.01,2013-12-01 20:03:00,
2013-12-01 14:08:00,34.7,11.7,0.00,SSW,199,0.0,0.0,38,0.00,,,0.00,VWS V13.01,2013-12-01 20:08:00,
2013-12-01 14:13:00,34.7,11.7,0.00,SSW,199,0.0,0.0,38,0.00,,,0.00,VWS V13.01,2013-12-01 20:13:00,
2013-12-01 14:18:00,34.5,11.5,0.00,SSW,199,0.0,0.0,38,0.00,,,0.00,VWS V13.01,2013-12-01 20:18:00,
2013-12-01 14:23:00,34.5,10.9,0.00,SSW,199,0.0,0.0,37,0.00,,,0.00,VWS V13.01,2013-12-01 20:23:00,
2013-12-01 14:28:00,34.5,11.5,0.00,SSW,199,0.0,0.0,38,0.00,,,0.00,VWS V13.01,2013-12-01 20:28:00,
2013-12-01 14:33:00,34.5,10.9,0.00,SSW,199,0.0,0.0,37,0.00,,,0.00,VWS V13.01,2013-12-01 20:33:00,
2013-12-01 14:38:00,34.3,10.2,0.00,South,187,3.1,5.8,36,0.00,,,0.00,VWS V13.01,2013-12-01 20:38:00,
2013-12-01 14:43:00,34.2,10.6,0.00,SSW,192,5.4,5.4,37,0.00,,,0.00,VWS V13.01,2013-12-01 20:43:00,
2013-12-01 14:48:00,34.0,9.9,0.00,South,186,4.0,4.0,36,0.00,,,0.00,VWS V13.01,2013-12-01 20:48:00,
2013-12-01 14:53:00,34.0,9.9,0.00,SSE,168,3.6,4.0,36,0.00,,,0.00,VWS V13.01,2013-12-01 20:53:00,
2013-12-01 14:58:00,34.0,10.5,0.00,South,187,2.7,3.6,37,0.00,,,0.00,VWS V13.01,2013-12-01 20:58:00,
2013-12-01 15:03:00,34.0,9.9,0.00,South,185,5.4,5.8,36,0.00,,,0.00,VWS V13.01,2013-12-01 21:03:00,
2013-12-01 15:09:00,34.0,9.9,0.00,South,176,3.6,3.6,36,0.00,,,0.00,VWS V13.01,2013-12-01 21:09:00,
2013-12-01 15:14:00,34.0,9.9,0.00,South,176,5.4,5.4,36,0.00,,,0.00,VWS V13.01,2013-12-01 21:14:00,
2013-12-01 15:19:00,34.0,10.5,0.00,SSW,194,3.6,4.0,37,0.00,,,0.00,VWS V13.01,2013-12-01 21:19:00,
2013-12-01 15:24:00,34.0,9.9,0.00,South,191,0.0,2.7,36,0.00,,,0.00,VWS V13.01,2013-12-01 21:24:00,
2013-12-01 15:29:00,34.0,10.5,0.00,South,191,0.0,0.0,37,0.00,,,0.00,VWS V13.01,2013-12-01 21:29:00,
2013-12-01 15:34:00,34.0,10.5,0.00,SSW,192,0.0,0.0,37,0.00,,,0.00,VWS V13.01,2013-12-01 21:34:00,
2013-12-01 15:39:00,33.8,10.3,0.00,SSW,192,0.0,0.0,37,0.00,,,0.00,VWS V13.01,2013-12-01 21:39:00,
2013-12-01 15:44:00,33.6,10.1,0.00,SSW,192,0.0,0.0,37,0.00,,,0.00,VWS V13.01,2013-12-01 21:44:00,
2013-12-01 15:49:00,33.4,10.0,0.00,SSW,192,0.0,0.0,37,0.00,,,0.00,VWS V13.01,2013-12-01 21:49:00,
2013-12-01 15:54:00,33.3,9.8,0.00,SSW,192,0.0,0.0,37,0.00,,,0.00,VWS V13.01,2013-12-01 21:54:00,
2013-12-01 15:59:00,33.1,10.2,0.00,SSW,192,0.0,0.0,38,0.00,,,0.00,VWS V13.01,2013-12-01 21:59:00,
2013-12-01 16:04:00,33.1,10.2,0.00,SSW,192,0.0,0.0,38,0.00,,,0.00,VWS V13.01,2013-12-01 22:04:00,
2013-12-01 16:09:00,32.9,10.1,0.00,SSW,192,0.0,0.0,38,0.00,,,0.00,VWS V13.01,2013-12-01 22:09:00,
2013-12-01 16:14:00,32.7,9.9,0.00,SSW,192,0.0,0.0,38,0.00,,,0.00,VWS V13.01,2013-12-01 22:14:00,
2013-12-01 16:19:00,32.4,9.6,0.00,SSW,192,0.0,0.0,38,0.00,,,0.00,VWS V13.01,2013-12-01 22:19:00,
2013-12-01 16:24:00,32.0,9.3,0.00,SSW,192,0.0,0.0,38,0.00,,,0.00,VWS V13.01,2013-12-01 22:24:00,
2013-12-01 16:29:00,31.6,9.0,0.00,SSW,192,0.0,0.0,38,0.00,,,0.00,VWS V13.01,2013-12-01 22:29:00,
2013-12-01 16:34:00,31.5,9.9,0.00,SSW,192,0.0,0.0,40,0.00,,,0.00,VWS V13.01,2013-12-01 22:34:00,
2013-12-01 16:39:00,31.1,9.6,0.00,SSW,192,0.0,0.0,40,0.00,,,0.00,VWS V13.01,2013-12-01 22:39:00,
2013-12-01 16:44:00,30.9,9.4,0.00,SSW,192,0.0,0.0,40,0.00,,,0.00,VWS V13.01,2013-12-01 22:44:00,
2013-12-01 16:49:00,31.1,10.2,0.00,SSW,192,2.7,2.7,41,0.00,,,0.00,VWS V13.01,2013-12-01 22:49:00,
2013-12-01 16:54:00,31.1,10.2,0.00,SSE,167,2.7,2.7,41,0.00,,,0.00,VWS V13.01,2013-12-01 22:54:00,
2013-12-01 16:59:00,31.5,10.5,0.00,South,186,3.6,4.0,41,0.00,,,0.00,VWS V13.01,2013-12-01 22:59:00,
2013-12-01 17:04:00,31.8,10.8,0.00,South,180,4.0,5.4,41,0.00,,,0.00,VWS V13.01,2013-12-01 23:04:00,
2013-12-01 17:09:00,31.8,10.8,0.00,South,182,4.0,4.9,41,0.00,,,0.00,VWS V13.01,2013-12-01 23:09:00,
2013-12-01 17:14:00,32.0,10.4,0.00,South,184,5.4,5.8,40,0.00,,,0.00,VWS V13.01,2013-12-01 23:14:00,
2013-12-01 17:19:00,32.0,10.4,0.00,South,188,5.4,5.4,40,0.00,,,0.00,VWS V13.01,2013-12-01 23:19:00,
2013-12-01 17:24:00,32.0,10.4,0.00,South,183,4.9,5.4,40,0.00,,,0.00,VWS V13.01,2013-12-01 23:24:00,
2013-12-01 17:29:00,32.0,10.4,0.00,South,172,5.4,5.8,40,0.00,,,0.00,VWS V13.01,2013-12-01 23:29:00,
2013-12-01 17:34:00,31.8,9.7,0.00,South,177,6.3,6.3,39,0.00,,,0.00,VWS V13.01,2013-12-01 23:34:00,
2013-12-01 17:39:00,31.8,9.7,0.00,South,185,5.4,5.4,39,0.00,,,0.00,VWS V13.01,2013-12-01 23:39:00,
2013-12-01 17:44:00,31.6,9.0,0.00,South,191,5.4,6.3,38,0.00,,,0.00,VWS V13.01,2013-12-01 23:44:00,
2013-12-01 17:49:00,31.6,9.5,0.00,South,187,2.7,5.4,39,0.00,,,0.00,VWS V13.01,2013-12-01 23:49:00,
2013-12-01 17:54:00,31.6,9.5,0.00,South,187,0.0,0.0,39,0.00,,,0.00,VWS V13.01,2013-12-01 23:54:00,
2013-12-01 17:59:00,31.5,9.4,0.00,South,187,0.0,0.0,39,0.00,,,0.00,VWS V13.01,2013-12-01 23:59:00,
2013-12-01 18:04:00,31.5,9.4,0.00,South,187,0.0,0.0,39,0.00,,,0.00,VWS V13.01,2013-12-02 00:04:00,
2013-12-01 18:09:00,31.3,9.2,0.00,South,187,0.0,0.0,39,0.00,,,0.00,VWS V13.01,2013-12-02 00:09:00,
2013-12-01 18:14:00,31.1,9.1,0.00,South,187,0.0,0.0,39,0.00,,,0.00,VWS V13.01,2013-12-02 00:14:00,
2013-12-01 18:19:00,30.7,8.7,0.00,South,187,0.0,0.0,39,0.00,,,0.00,VWS V13.01,2013-12-02 00:19:00,
2013-12-01 18:24:00,30.4,8.4,0.00,South,187,0.0,0.0,39,0.00,,,0.00,VWS V13.01,2013-12-02 00:24:00,
2013-12-01 18:29:00,30.2,8.8,0.00,South,187,0.0,0.0,40,0.00,,,0.00,VWS V13.01,2013-12-02 00:29:00,
2013-12-01 18:34:00,30.2,8.8,0.00,South,187,0.0,0.0,40,0.00,,,0.00,VWS V13.01,2013-12-02 00:34:00,
2013-12-01 18:39:00,30.2,9.4,0.00,South,187,0.0,0.0,41,0.00,,,0.00,VWS V13.01,2013-12-02 00:39:00,
2013-12-01 18:44:00,30.4,9.5,0.00,South,187,2.7,2.7,41,0.00,,,0.00,VWS V13.01,2013-12-02 00:44:00,
2013-12-01 18:49:00,30.4,9.5,0.00,South,182,3.1,3.1,41,0.00,,,0.00,VWS V13.01,2013-12-02 00:49:00,
2013-12-01 18:54:00,30.4,9.5,0.00,South,182,0.0,0.0,41,0.00,,,0.00,VWS V13.01,2013-12-02 00:54:00,
2013-12-01 18:59:00,30.2,9.4,0.00,South,184,0.0,0.0,41,0.00,,,0.00,VWS V13.01,2013-12-02 00:59:00,
2013-12-01 19:04:00,30.0,9.2,0.00,South,183,0.0,0.0,41,0.00,,,0.00,VWS V13.01,2013-12-02 01:04:00,
2013-12-01 19:09:00,29.8,9.0,0.00,South,183,0.0,0.0,41,0.00,,,0.00,VWS V13.01,2013-12-02 01:09:00,
2013-12-01 19:14:00,29.5,8.7,0.00,South,183,0.0,0.0,41,0.00,,,0.00,VWS V13.01,2013-12-02 01:14:00,
2013-12-01 19:19:00,29.1,8.4,0.00,South,183,0.0,0.0,41,0.00,,,0.00,VWS V13.01,2013-12-02 01:19:00,
2013-12-01 19:24:00,28.8,8.0,0.00,South,183,0.0,0.0,41,0.00,,,0.00,VWS V13.01,2013-12-02 01:24:00,
2013-12-01 19:29:00,28.9,8.2,0.00,South,183,0.0,0.0,41,0.00,,,0.00,VWS V13.01,2013-12-02 01:29:00,
2013-12-01 19:34:00,28.9,8.7,0.00,South,183,0.0,0.0,42,0.00,,,0.00,VWS V13.01,2013-12-02 01:34:00,
2013-12-01 19:39:00,28.9,8.7,0.00,South,183,0.0,0.0,42,0.00,,,0.00,VWS V13.01,2013-12-02 01:39:00,
2013-12-01 19:44:00,28.9,8.7,0.00,South,183,0.0,0.0,42,0.00,,,0.00,VWS V13.01,2013-12-02 01:44:00,
2013-12-01 19:49:00,28.9,8.7,0.00,South,183,0.0,0.0,42,0.00,,,0.00,VWS V13.01,2013-12-02 01:49:00,
2013-12-01 19:54:00,29.1,8.9,0.00,South,183,0.0,0.0,42,0.00,,,0.00,VWS V13.01,2013-12-02 01:54:00,
2013-12-01 19:59:00,28.9,8.7,0.00,South,183,0.0,0.0,42,0.00,,,0.00,VWS V13.01,2013-12-02 01:59:00,
2013-12-01 20:04:00,28.8,8.6,0.00,South,183,0.0,0.0,42,0.00,,,0.00,VWS V13.01,2013-12-02 02:04:00,
2013-12-01 20:09:00,28.6,8.4,0.00,South,183,0.0,0.0,42,0.00,,,0.00,VWS V13.01,2013-12-02 02:09:00,
2013-12-01 20:14:00,28.2,8.1,0.00,South,183,0.0,0.0,42,0.00,,,0.00,VWS V13.01,2013-12-02 02:14:00,
2013-12-01 20:19:00,28.0,7.9,0.00,South,183,0.0,0.0,42,0.00,,,0.00,VWS V13.01,2013-12-02 02:19:00,
2013-12-01 20:24:00,27.7,8.1,0.00,South,183,0.0,0.0,43,0.00,,,0.00,VWS V13.01,2013-12-02 02:24:00,
2013-12-01 20:29:00,27.5,7.9,0.00,South,183,0.0,0.0,43,0.00,,,0.00,VWS V13.01,2013-12-02 02:29:00,
2013-12-01 20:34:00,27.1,7.6,0.00,South,183,0.0,0.0,43,0.00,,,0.00,VWS V13.01,2013-12-02 02:34:00,
2013-12-01 20:39:00,27.0,7.5,0.00,South,183,0.0,0.0,43,0.00,,,0.00,VWS V13.01,2013-12-02 02:39:00,
2013-12-01 20:44:00,26.6,7.1,0.00,South,183,0.0,0.0,43,0.00,,,0.00,VWS V13.01,2013-12-02 02:44:00,
2013-12-01 20:49:00,26.4,7.0,0.00,South,183,0.0,0.0,43,0.00,,,0.00,VWS V13.01,2013-12-02 02:49:00,
2013-12-01 20:54:00,26.4,7.0,0.00,South,183,0.0,0.0,43,0.00,,,0.00,VWS V13.01,2013-12-02 02:54:00,
2013-12-01 20:59:00,26.2,7.3,0.00,South,183,0.0,0.0,44,0.00,,,0.00,VWS V13.01,2013-12-02 02:59:00,
2013-12-01 21:04:00,26.1,7.2,0.00,South,183,0.0,0.0,44,0.00,,,0.00,VWS V13.01,2013-12-02 03:04:00,
2013-12-01 21:09:00,25.9,7.0,0.00,South,183,0.0,0.0,44,0.00,,,0.00,VWS V13.01,2013-12-02 03:09:00,
2013-12-01 21:14:00,25.9,7.0,0.00,South,183,0.0,0.0,44,0.00,,,0.00,VWS V13.01,2013-12-02 03:14:00,
2013-12-01 21:19:00,25.7,6.8,0.00,South,183,0.0,0.0,44,0.00,,,0.00,VWS V13.01,2013-12-02 03:19:00,
2013-12-01 21:24:00,25.5,6.7,0.00,South,183,0.0,0.0,44,0.00,,,0.00,VWS V13.01,2013-12-02 03:24:00,
2013-12-01 21:29:00,25.5,6.7,0.00,South,183,0.0,0.0,44,0.00,,,0.00,VWS V13.01,2013-12-02 03:29:00,
2013-12-01 21:34:00,25.3,7.0,0.00,South,183,0.0,0.0,45,0.00,,,0.00,VWS V13.01,2013-12-02 03:34:00,
2013-12-01 21:39:00,25.2,6.8,0.00,South,183,0.0,0.0,45,0.00,,,0.00,VWS V13.01,2013-12-02 03:39:00,
2013-12-01 21:44:00,25.0,6.7,0.00,South,183,0.0,0.0,45,0.00,,,0.00,VWS V13.01,2013-12-02 03:44:00,
2013-12-01 21:49:00,25.0,6.7,0.00,South,183,0.0,0.0,45,0.00,,,0.00,VWS V13.01,2013-12-02 03:49:00,
2013-12-01 21:54:00,24.8,7.0,0.00,South,183,0.0,0.0,46,0.00,,,0.00,VWS V13.01,2013-12-02 03:54:00,
2013-12-01 21:59:00,24.6,6.8,0.00,South,183,0.0,0.0,46,0.00,,,0.00,VWS V13.01,2013-12-02 03:59:00,
2013-12-01 22:04:00,24.4,6.6,0.00,South,183,0.0,0.0,46,0.00,,,0.00,VWS V13.01,2013-12-02 04:04:00,
2013-12-01 22:09:00,24.4,6.6,0.00,South,183,0.0,0.0,46,0.00,,,0.00,VWS V13.01,2013-12-02 04:09:00,
2013-12-01 22:14:00,24.3,6.9,0.00,South,183,0.0,0.0,47,0.00,,,0.00,VWS V13.01,2013-12-02 04:14:00,
2013-12-01 22:19:00,24.1,6.8,0.00,South,183,0.0,0.0,47,0.00,,,0.00,VWS V13.01,2013-12-02 04:19:00,
2013-12-01 22:24:00,23.9,6.6,0.00,South,183,0.0,0.0,47,0.00,,,0.00,VWS V13.01,2013-12-02 04:24:00,
2013-12-01 22:29:00,23.7,6.4,0.00,South,183,0.0,0.0,47,0.00,,,0.00,VWS V13.01,2013-12-02 04:29:00,
2013-12-01 22:34:00,23.7,6.9,0.00,South,183,0.0,0.0,48,0.00,,,0.00,VWS V13.01,2013-12-02 04:34:00,
2013-12-01 22:39:00,23.5,6.8,0.00,South,183,0.0,0.0,48,0.00,,,0.00,VWS V13.01,2013-12-02 04:39:00,
2013-12-01 22:44:00,23.5,6.8,0.00,South,183,0.0,0.0,48,0.00,,,0.00,VWS V13.01,2013-12-02 04:44:00,
2013-12-01 22:49:00,23.4,6.6,0.00,South,183,0.0,0.0,48,0.00,,,0.00,VWS V13.01,2013-12-02 04:49:00,
2013-12-01 22:54:00,23.2,6.4,0.00,South,183,0.0,0.0,48,0.00,,,0.00,VWS V13.01,2013-12-02 04:54:00,
2013-12-01 22:59:00,22.8,6.5,0.00,South,183,0.0,0.0,49,0.00,,,0.00,VWS V13.01,2013-12-02 04:59:00,
2013-12-01 23:01:00,22.8,6.5,0.00,South,183,0.0,0.0,49,0.00,,,0.00,VWS V13.01,2013-12-02 05:01:00,
2013-12-01 23:06:00,22.6,6.4,0.00,South,183,0.0,0.0,49,0.00,,,0.00,VWS V13.01,2013-12-02 05:06:00,
2013-12-01 23:11:00,22.5,6.6,0.00,South,183,0.0,0.0,50,0.00,,,0.00,VWS V13.01,2013-12-02 05:11:00,
2013-12-01 23:16:00,22.3,6.9,0.00,South,183,0.0,0.0,51,0.00,,,0.00,VWS V13.01,2013-12-02 05:16:00,
2013-12-01 23:21:00,22.1,6.8,0.00,South,183,0.0,0.0,51,0.00,,,0.00,VWS V13.01,2013-12-02 05:21:00,
2013-12-01 23:26:00,21.9,6.6,0.00,South,183,0.0,0.0,51,0.00,,,0.00,VWS V13.01,2013-12-02 05:26:00,
2013-12-01 23:31:00,21.9,6.6,0.00,South,183,0.0,0.0,51,0.00,,,0.00,VWS V13.01,2013-12-02 05:31:00,
2013-12-01 23:36:00,21.9,6.6,0.00,South,183,0.0,0.0,51,0.00,,,0.00,VWS V13.01,2013-12-02 05:36:00,
2013-12-01 23:41:00,21.7,6.8,0.00,South,183,0.0,0.0,52,0.00,,,0.00,VWS V13.01,2013-12-02 05:41:00,
2013-12-01 23:46:00,21.6,6.7,0.00,South,183,0.0,0.0,52,0.00,,,0.00,VWS V13.01,2013-12-02 05:46:00,
2013-12-01 23:51:00,21.4,6.5,0.00,South,183,0.0,0.0,52,0.00,,,0.00,VWS V13.01,2013-12-02 05:51:00,
2013-12-01 23:56:00,21.2,6.3,0.00,South,183,0.0,0.0,52,0.00,,,0.00,VWS V13.01,2013-12-02 05:56:00,